• Em Portugal
  • Lista de países
  • Para 7 dias
  • Temperatura da água
  • Mapas de satélite
  • Mapa do tempo
  • Widgets de tempo
  • user-avatar
    Iniciar Sessão

    Previsão horária em Apole

    Hoje, 24 Maio, Quinta-feira

    Tempo Temperatura Precipitação Vento Pressão Humidade
    00:00 +13°C° 0 mm 1 m/s 752 mmHg 83%
    01:00 +12°C° 0 mm 1 m/s 752 mmHg 85%
    02:00 +10°C° 0 mm 1 m/s 752 mmHg 91%
    03:00 +11°C° 0 mm 1 m/s 752 mmHg 90%
    04:00 +11°C° 0 mm 1 m/s 752 mmHg 89%
    05:00 +11°C° 0 mm 1 m/s 752 mmHg 88%
    06:00 +14°C° 0 mm 1 m/s 752 mmHg 81%
    07:00 +16°C° 0 mm 1 m/s 752 mmHg 74%
    08:00 +19°C° 0 mm 1 m/s 753 mmHg 65%
    09:00 +19°C° 0 mm 2 m/s 753 mmHg 61%
    10:00 +20°C° 0 mm 2 m/s 752 mmHg 56%
    11:00 +23°C° 0 mm 2 m/s 752 mmHg 52%
    12:00 +22°C° 0,2 mm 3 m/s 752 mmHg 51%
    13:00 +22°C° 0,2 mm 3 m/s 752 mmHg 50%
    14:00 +24°C° 0,2 mm 3 m/s 752 mmHg 50%
    15:00 +24°C° 0,1 mm 3 m/s 752 mmHg 52%
    16:00 +22°C° 0,1 mm 3 m/s 752 mmHg 54%
    17:00 +22°C° 0,1 mm 3 m/s 752 mmHg 57%
    18:00 +20°C° 0,1 mm 3 m/s 752 mmHg 64%
    19:00 +19°C° 0,1 mm 3 m/s 752 mmHg 71%
    20:00 +17°C° 0,1 mm 3 m/s 752 mmHg 78%
    21:00 +16°C° 0 mm 3 m/s 753 mmHg 77%
    22:00 +13°C° 0 mm 3 m/s 753 mmHg 76%
    23:00 +12°C° 0 mm 3 m/s 753 mmHg 75%

    Amanhã, 25 Maio, Sexta-feira

    Tempo Temperatura Precipitação Vento Pressão Humidade
    00:00 +11°C° 0 mm 3 m/s 754 mmHg 75%
    01:00 +10°C° 0 mm 3 m/s 754 mmHg 76%
    02:00 +9°C° 0 mm 2 m/s 754 mmHg 77%
    03:00 +9°C° 0 mm 2 m/s 754 mmHg 78%
    04:00 +9°C° 0 mm 2 m/s 755 mmHg 80%
    05:00 +9°C° 0 mm 2 m/s 755 mmHg 82%
    06:00 +12°C° 0 mm 2 m/s 755 mmHg 77%
    07:00 +15°C° 0 mm 2 m/s 755 mmHg 73%
    08:00 +17°C° 0 mm 2 m/s 756 mmHg 68%
    09:00 +18°C° 0 mm 2 m/s 756 mmHg 62%
    10:00 +20°C° 0 mm 3 m/s 756 mmHg 56%
    11:00 +21°C° 0 mm 3 m/s 756 mmHg 49%
    12:00 +22°C° 0 mm 3 m/s 756 mmHg 47%
    13:00 +22°C° 0 mm 3 m/s 756 mmHg 44%
    14:00 +22°C° 0 mm 3 m/s 756 mmHg 41%
    15:00 +22°C° 0 mm 3 m/s 756 mmHg 42%
    16:00 +22°C° 0 mm 3 m/s 756 mmHg 43%
    17:00 +22°C° 0 mm 3 m/s 756 mmHg 44%
    18:00 +20°C° 0 mm 2 m/s 756 mmHg 52%
    19:00 +18°C° 0 mm 2 m/s 756 mmHg 60%
    20:00 +16°C° 0 mm 2 m/s 757 mmHg 68%
    21:00 +14°C° 0 mm 2 m/s 757 mmHg 70%
    22:00 +13°C° 0 mm 2 m/s 758 mmHg 71%
    23:00 +12°C° 0 mm 2 m/s 758 mmHg 73%

    Depois de amanhã, 26 Maio, Sábado

    Tempo Temperatura Precipitação Vento Pressão Humidade
    00:00 +12°C° 0 mm 2 m/s 758 mmHg 74%
    01:00 +10°C° 0 mm 2 m/s 759 mmHg 75%
    02:00 +10°C° 0 mm 2 m/s 759 mmHg 77%
    03:00 +10°C° 0 mm 2 m/s 759 mmHg 77%
    04:00 +10°C° 0 mm 2 m/s 759 mmHg 76%
    05:00 +11°C° 0 mm 1 m/s 759 mmHg 76%
    06:00 +13°C° 0 mm 2 m/s 760 mmHg 70%
    07:00 +15°C° 0 mm 2 m/s 760 mmHg 63%
    08:00 +17°C° 0 mm 2 m/s 760 mmHg 57%
    09:00 +18°C° 0 mm 2 m/s 760 mmHg 52%
    10:00 +19°C° 0 mm 2 m/s 760 mmHg 47%
    11:00 +21°C° 0 mm 2 m/s 759 mmHg 43%
    12:00 +21°C° 0 mm 2 m/s 759 mmHg 42%
    13:00 +23°C° 0 mm 2 m/s 759 mmHg 41%
    14:00 +22°C° 0 mm 3 m/s 758 mmHg 40%
    15:00 +23°C° 0 mm 2 m/s 758 mmHg 42%
    16:00 +23°C° 0 mm 2 m/s 758 mmHg 44%
    17:00 +23°C° 0 mm 2 m/s 757 mmHg 46%
    18:00 +20°C° 0 mm 2 m/s 757 mmHg 55%
    19:00 +18°C° 0 mm 2 m/s 757 mmHg 63%
    20:00 +16°C° 0 mm 2 m/s 757 mmHg 72%
    21:00 +15°C° 0 mm 2 m/s 757 mmHg 75%
    22:00 +14°C° 0 mm 2 m/s 757 mmHg 77%
    23:00 +13°C° 0 mm 2 m/s 758 mmHg 80%

    27 Maio, Domingo

    Tempo Temperatura Precipitação Vento Pressão Humidade
    00:00 +12°C° 0 mm 2 m/s 758 mmHg 82%
    01:00 +12°C° 0 mm 2 m/s 757 mmHg 84%
    02:00 +10°C° 0 mm 2 m/s 757 mmHg 86%
    03:00 +10°C° 0 mm 2 m/s 757 mmHg 85%
    04:00 +12°C° 0 mm 2 m/s 757 mmHg 85%
    05:00 +12°C° 0 mm 2 m/s 757 mmHg 84%
    06:00 +14°C° 0 mm 2 m/s 757 mmHg 77%
    07:00 +16°C° 0 mm 2 m/s 757 mmHg 69%
    08:00 +18°C° 0 mm 2 m/s 757 mmHg 62%
    09:00 +19°C° 0 mm 2 m/s 757 mmHg 56%
    10:00 +22°C° 0 mm 1 m/s 757 mmHg 51%
    11:00 +23°C° 0 mm 1 m/s 757 mmHg 45%
    12:00 +24°C° 0 mm 1 m/s 756 mmHg 43%
    13:00 +25°C° 0 mm 1 m/s 756 mmHg 42%
    14:00 +26°C° 0 mm 1 m/s 756 mmHg 40%
    15:00 +25°C° 0 mm 1 m/s 755 mmHg 41%
    16:00 +25°C° 0 mm 1 m/s 755 mmHg 43%
    17:00 +25°C° 0 mm 1 m/s 755 mmHg 45%
    18:00 +23°C° 0 mm 1 m/s 755 mmHg 53%
    19:00 +21°C° 0 mm 1 m/s 755 mmHg 62%
    20:00 +19°C° 0 mm 1 m/s 755 mmHg 70%
    21:00 +18°C° 0 mm 1 m/s 756 mmHg 70%
    22:00 +16°C° 0 mm 2 m/s 756 mmHg 71%
    23:00 +14°C° 0 mm 2 m/s 757 mmHg 71%

    28 Maio, Segunda-feira

    Tempo Temperatura Precipitação Vento Pressão Humidade
    00:00 +13°C° 0 mm 2 m/s 757 mmHg 68%
    01:00 +12°C° 0 mm 2 m/s 757 mmHg 65%
    02:00 +10°C° 0 mm 2 m/s 757 mmHg 62%
    03:00 +10°C° 0 mm 2 m/s 758 mmHg 63%
    04:00 +10°C° 0 mm 2 m/s 758 mmHg 63%
    05:00 +9°C° 0 mm 2 m/s 758 mmHg 64%
    06:00 +12°C° 0 mm 2 m/s 758 mmHg 59%
    07:00 +14°C° 0 mm 2 m/s 759 mmHg 55%
    08:00 +16°C° 0 mm 2 m/s 759 mmHg 50%
    09:00 +18°C° 0 mm 2 m/s 759 mmHg 46%
    10:00 +20°C° 0 mm 2 m/s 759 mmHg 41%
    11:00 +21°C° 0 mm 2 m/s 759 mmHg 37%
    12:00 +23°C° 0 mm 2 m/s 759 mmHg 35%
    13:00 +24°C° 0 mm 2 m/s 759 mmHg 33%
    14:00 +24°C° 0 mm 2 m/s 759 mmHg 32%
    15:00 +24°C° 0 mm 2 m/s 759 mmHg 34%
    16:00 +24°C° 0 mm 2 m/s 759 mmHg 36%
    17:00 +24°C° 0 mm 2 m/s 759 mmHg 39%
    18:00 +20°C° 0 mm 2 m/s 759 mmHg 47%
    19:00 +18°C° 0 mm 2 m/s 759 mmHg 55%
    20:00 +16°C° 0 mm 2 m/s 758 mmHg 64%
    21:00 +15°C° 0 mm 1 m/s 759 mmHg 64%
    22:00 +14°C° 0 mm 1 m/s 759 mmHg 65%
    23:00 +12°C° 0 mm 1 m/s 759 mmHg 65%

    29 Maio, Terça-feira

    Tempo Temperatura Precipitação Vento Pressão Humidade
    00:00 +12°C° 0 mm 1 m/s 759 mmHg 66%
    01:00 +11°C° 0 mm 1 m/s 760 mmHg 68%
    02:00 +11°C° 0 mm 1 m/s 760 mmHg 69%
    03:00 +11°C° 0 mm 1 m/s 760 mmHg 71%
    04:00 +12°C° 0 mm 1 m/s 760 mmHg 73%
    05:00 +12°C° 0 mm 1 m/s 760 mmHg 75%
    06:00 +14°C° 0 mm 1 m/s 760 mmHg 69%
    07:00 +18°C° 0 mm 1 m/s 760 mmHg 62%
    08:00 +20°C° 0 mm 1 m/s 760 mmHg 55%
    09:00 +22°C° 0 mm 1 m/s 760 mmHg 50%
    10:00 +23°C° 0 mm 1 m/s 759 mmHg 45%
    11:00 +25°C° 0 mm 2 m/s 759 mmHg 40%
    12:00 +26°C° 0 mm 2 m/s 759 mmHg 38%
    13:00 +26°C° 0 mm 2 m/s 758 mmHg 37%
    14:00 +27°C° 0 mm 2 m/s 758 mmHg 35%
    15:00 +27°C° 0 mm 2 m/s 758 mmHg 38%
    16:00 +26°C° 0 mm 2 m/s 757 mmHg 40%
    17:00 +26°C° 0 mm 2 m/s 757 mmHg 42%
    18:00 +24°C° 0 mm 1 m/s 756 mmHg 51%
    19:00 +22°C° 0 mm 1 m/s 756 mmHg 59%
    20:00 +20°C° 0 mm 1 m/s 756 mmHg 68%
    21:00 +19°C° 0 mm 1 m/s 756 mmHg 70%
    22:00 +16°C° 0 mm 1 m/s 756 mmHg 73%
    23:00 +15°C° 0 mm 1 m/s 755 mmHg 75%
    Mostrar mais